Time,TemperatureF,DewpointF,PressureIn,WindDirection,WindDirectionDegrees,WindSpeedMPH,WindSpeedGustMPH,Humidity,HourlyPrecipIn,Conditions,Clouds,dailyrainin,SoftwareType,DateUTC
2013-03-07 00:09:00,29.1,26.0,30.34,NNE,27,0.0,4.0,89,0.00,,,0.00,weatherlink.com 1.10,2013-03-07 05:09:00,
2013-03-07 00:24:00,29.1,26.0,30.33,ESE,117,0.0,0.0,89,0.00,,,0.00,weatherlink.com 1.10,2013-03-07 05:24:00,
2013-03-07 00:39:00,29.0,26.0,30.35,South,188,0.0,0.0,89,0.00,,,0.00,weatherlink.com 1.10,2013-03-07 05:39:00,
2013-03-07 00:54:00,28.9,26.0,30.35,NE,43,0.0,3.0,89,0.00,,,0.00,weatherlink.com 1.10,2013-03-07 05:54:00,
2013-03-07 01:10:00,28.9,26.0,30.34,NNE,22,0.0,4.0,89,0.00,,,0.00,weatherlink.com 1.10,2013-03-07 06:10:00,
2013-03-07 01:25:00,28.8,26.0,30.35,NNW,337,0.0,4.0,89,0.00,,,0.00,weatherlink.com 1.10,2013-03-07 06:25:00,
2013-03-07 01:40:00,28.8,26.0,30.36,NW,311,0.0,3.0,89,0.00,,,0.00,weatherlink.com 1.10,2013-03-07 06:40:00,
2013-03-07 01:55:00,28.9,26.0,30.37,West,277,0.0,1.0,89,0.00,,,0.00,weatherlink.com 1.10,2013-03-07 06:55:00,
2013-03-07 02:10:00,28.9,26.0,30.37,SE,128,0.0,7.0,89,0.00,,,0.00,weatherlink.com 1.10,2013-03-07 07:10:00,
2013-03-07 02:25:00,28.9,26.0,30.37,East,94,0.0,3.0,89,0.00,,,0.00,weatherlink.com 1.10,2013-03-07 07:25:00,
2013-03-07 02:40:00,28.9,26.0,30.36,East,98,0.0,5.0,89,0.00,,,0.00,weatherlink.com 1.10,2013-03-07 07:40:00,
2013-03-07 02:55:00,28.9,26.0,30.37,ENE,70,0.0,2.0,88,0.00,,,0.00,weatherlink.com 1.10,2013-03-07 07:55:00,
2013-03-07 03:10:00,28.9,26.0,30.36,WNW,294,0.0,4.0,88,0.00,,,0.00,weatherlink.com 1.10,2013-03-07 08:10:00,
2013-03-07 03:26:00,28.9,26.0,30.36,WSW,248,0.0,0.0,88,0.00,,,0.00,weatherlink.com 1.10,2013-03-07 08:26:00,
2013-03-07 03:40:00,28.9,26.0,30.37,NW,310,0.0,0.0,88,0.00,,,0.00,weatherlink.com 1.10,2013-03-07 08:40:00,
2013-03-07 03:55:00,28.9,26.0,30.38,SE,146,0.0,1.0,88,0.00,,,0.00,weatherlink.com 1.10,2013-03-07 08:55:00,
2013-03-07 04:10:00,28.8,26.0,30.38,North,4,0.0,2.0,88,0.00,,,0.00,weatherlink.com 1.10,2013-03-07 09:10:00,
2013-03-07 04:25:00,28.9,26.0,30.38,North,8,0.0,0.0,88,0.00,,,0.00,weatherlink.com 1.10,2013-03-07 09:25:00,
2013-03-07 04:40:00,28.8,26.0,30.38,NNE,20,0.0,3.0,88,0.00,,,0.00,weatherlink.com 1.10,2013-03-07 09:40:00,
2013-03-07 04:55:00,28.8,26.0,30.39,SSE,163,0.0,5.0,88,0.00,,,0.00,weatherlink.com 1.10,2013-03-07 09:55:00,
2013-03-07 05:10:00,28.8,25.0,30.39,NW,312,0.0,1.0,87,0.00,,,0.00,weatherlink.com 1.10,2013-03-07 10:10:00,
2013-03-07 05:25:00,28.8,25.0,30.39,North,1,0.0,1.0,87,0.00,,,0.00,weatherlink.com 1.10,2013-03-07 10:25:00,
2013-03-07 05:40:00,28.8,26.0,30.39,East,97,0.0,1.0,88,0.00,,,0.00,weatherlink.com 1.10,2013-03-07 10:40:00,
2013-03-07 05:55:00,28.8,26.0,30.40,NNW,338,0.0,0.0,88,0.00,,,0.00,weatherlink.com 1.10,2013-03-07 10:55:00,
2013-03-07 06:10:00,28.8,25.0,30.40,SE,132,0.0,4.0,87,0.00,,,0.00,weatherlink.com 1.10,2013-03-07 11:10:00,
2013-03-07 06:25:00,28.7,26.0,30.40,West,270,0.0,0.0,88,0.00,,,0.00,weatherlink.com 1.10,2013-03-07 11:25:00,
2013-03-07 06:40:00,28.6,25.0,30.41,NNE,31,0.0,1.0,87,0.00,,,0.00,weatherlink.com 1.10,2013-03-07 11:40:00,
2013-03-07 06:55:00,28.5,25.0,30.42,East,93,0.0,1.0,88,0.00,,,0.00,weatherlink.com 1.10,2013-03-07 11:55:00,
2013-03-07 07:10:00,28.3,25.0,30.41,NNE,25,0.0,1.0,88,0.00,,,0.00,weatherlink.com 1.10,2013-03-07 12:10:00,
2013-03-07 07:25:00,28.1,25.0,30.42,North,6,0.0,0.0,88,0.00,,,0.00,weatherlink.com 1.10,2013-03-07 12:25:00,
2013-03-07 07:40:00,28.1,25.0,30.41,WSW,242,0.0,1.0,88,0.00,,,0.00,weatherlink.com 1.10,2013-03-07 12:40:00,
2013-03-07 07:55:00,28.5,25.0,30.43,ESE,110,0.0,4.0,88,0.00,,,0.00,weatherlink.com 1.10,2013-03-07 12:55:00,
2013-03-07 08:10:00,29.1,26.0,30.43,North,349,0.0,2.0,87,0.00,,,0.00,weatherlink.com 1.10,2013-03-07 13:10:00,
2013-03-07 08:25:00,29.4,26.0,30.42,East,98,0.0,2.0,87,0.00,,,0.00,weatherlink.com 1.10,2013-03-07 13:25:00,
2013-03-07 08:40:00,29.9,26.0,30.42,ESE,111,0.0,2.0,86,0.00,,,0.00,weatherlink.com 1.10,2013-03-07 13:40:00,
2013-03-07 08:55:00,30.3,26.0,30.43,NW,320,0.0,1.0,85,0.00,,,0.00,weatherlink.com 1.10,2013-03-07 13:55:00,
2013-03-07 09:10:00,30.6,26.0,30.44,West,260,0.0,0.0,84,0.00,,,0.00,weatherlink.com 1.10,2013-03-07 14:10:00,
2013-03-07 09:25:00,31.4,27.0,30.43,NW,310,0.0,6.0,83,0.00,,,0.00,weatherlink.com 1.10,2013-03-07 14:25:00,
2013-03-07 09:40:00,32.3,27.0,30.44,SE,134,0.0,6.0,82,0.00,,,0.00,weatherlink.com 1.10,2013-03-07 14:40:00,
2013-03-07 09:55:00,32.9,27.0,30.45,NE,53,0.0,1.0,80,0.00,,,0.00,weatherlink.com 1.10,2013-03-07 14:55:00,
2013-03-07 10:10:00,33.7,28.0,30.45,SSE,152,1.0,2.0,79,0.00,,,0.00,weatherlink.com 1.10,2013-03-07 15:10:00,
2013-03-07 10:41:00,36.5,29.0,30.43,NW,326,0.0,4.0,75,0.00,,,0.00,weatherlink.com 1.10,2013-03-07 15:41:00,
2013-03-07 10:56:00,37.6,29.0,30.44,North,350,0.0,5.0,72,0.00,,,0.00,weatherlink.com 1.10,2013-03-07 15:56:00,
2013-03-07 11:11:00,39.0,30.0,30.44,NNW,330,0.0,4.0,70,0.00,,,0.00,weatherlink.com 1.10,2013-03-07 16:11:00,
2013-03-07 11:26:00,39.6,30.0,30.44,NNW,341,0.0,8.0,69,0.00,,,0.00,weatherlink.com 1.10,2013-03-07 16:26:00,
2013-03-07 11:41:00,41.3,32.0,30.43,NNW,333,0.0,6.0,69,0.00,,,0.00,weatherlink.com 1.10,2013-03-07 16:41:00,
2013-03-07 11:56:00,43.4,32.0,30.43,WNW,283,0.0,0.0,65,0.00,,,0.00,weatherlink.com 1.10,2013-03-07 16:56:00,
2013-03-07 12:11:00,44.5,32.0,30.43,SW,236,0.0,4.0,62,0.00,,,0.00,weatherlink.com 1.10,2013-03-07 17:11:00,
2013-03-07 12:26:00,45.1,33.0,30.43,SE,132,0.0,1.0,62,0.00,,,0.00,weatherlink.com 1.10,2013-03-07 17:26:00,
2013-03-07 12:41:00,46.4,33.0,30.41,WNW,290,0.0,1.0,61,0.00,,,0.00,weatherlink.com 1.10,2013-03-07 17:41:00,
2013-03-07 12:56:00,47.4,34.0,30.41,WNW,301,0.0,1.0,59,0.00,,,0.00,weatherlink.com 1.10,2013-03-07 17:56:00,
2013-03-07 13:11:00,46.5,32.0,30.40,WSW,253,0.0,5.0,58,0.00,,,0.00,weatherlink.com 1.10,2013-03-07 18:11:00,
2013-03-07 13:26:00,48.0,32.0,30.39,SW,228,0.0,6.0,55,0.00,,,0.00,weatherlink.com 1.10,2013-03-07 18:26:00,
2013-03-07 13:41:00,48.9,32.0,30.39,SW,227,0.0,3.0,53,0.00,,,0.00,weatherlink.com 1.10,2013-03-07 18:41:00,
2013-03-07 13:56:00,50.6,34.0,30.38,West,269,2.0,2.0,54,0.00,,,0.00,weatherlink.com 1.10,2013-03-07 18:56:00,
2013-03-07 14:26:00,51.8,31.0,30.37,WSW,249,0.0,1.0,46,0.00,,,0.00,weatherlink.com 1.10,2013-03-07 19:26:00,
2013-03-07 14:41:00,52.5,32.0,30.37,SW,219,0.0,1.0,45,0.00,,,0.00,weatherlink.com 1.10,2013-03-07 19:41:00,
2013-03-07 14:56:00,54.0,32.0,30.38,WNW,301,1.0,2.0,44,0.00,,,0.00,weatherlink.com 1.10,2013-03-07 19:56:00,
2013-03-07 15:11:00,52.4,30.0,30.37,WNW,301,0.0,3.0,43,0.00,,,0.00,weatherlink.com 1.10,2013-03-07 20:11:00,
2013-03-07 15:26:00,53.1,32.0,30.37,ESE,118,0.0,1.0,45,0.00,,,0.00,weatherlink.com 1.10,2013-03-07 20:26:00,
2013-03-07 15:41:00,52.8,34.0,30.36,ESE,113,0.0,1.0,50,0.00,,,0.00,weatherlink.com 1.10,2013-03-07 20:41:00,
2013-03-07 15:56:00,52.5,34.0,30.37,North,11,0.0,3.0,49,0.00,,,0.00,weatherlink.com 1.10,2013-03-07 20:56:00,
2013-03-07 16:11:00,52.6,32.0,30.37,SW,227,0.0,1.0,46,0.00,,,0.00,weatherlink.com 1.10,2013-03-07 21:11:00,
2013-03-07 16:26:00,52.1,32.0,30.37,East,94,0.0,4.0,47,0.00,,,0.00,weatherlink.com 1.10,2013-03-07 21:26:00,
2013-03-07 16:41:00,51.4,32.0,30.37,WSW,248,0.0,5.0,48,0.00,,,0.00,weatherlink.com 1.10,2013-03-07 21:41:00,
2013-03-07 16:56:00,50.4,34.0,30.37,ENE,67,0.0,4.0,53,0.00,,,0.00,weatherlink.com 1.10,2013-03-07 21:56:00,
2013-03-07 17:11:00,50.0,33.0,30.38,WNW,291,0.0,4.0,52,0.00,,,0.00,weatherlink.com 1.10,2013-03-07 22:11:00,
2013-03-07 17:26:00,47.7,32.0,30.38,WSW,239,0.0,5.0,55,0.00,,,0.00,weatherlink.com 1.10,2013-03-07 22:26:00,
2013-03-07 17:41:00,47.1,31.0,30.38,WSW,258,0.0,2.0,54,0.00,,,0.00,weatherlink.com 1.10,2013-03-07 22:41:00,
2013-03-07 17:56:00,46.0,31.0,30.38,SE,143,0.0,0.0,56,0.00,,,0.00,weatherlink.com 1.10,2013-03-07 22:56:00,
2013-03-07 18:11:00,43.4,30.0,30.38,NE,40,0.0,0.0,60,0.00,,,0.00,weatherlink.com 1.10,2013-03-07 23:11:00,
2013-03-07 18:26:00,41.2,30.0,30.39,NE,51,0.0,0.0,65,0.00,,,0.00,weatherlink.com 1.10,2013-03-07 23:26:00,
2013-03-07 18:41:00,39.3,29.0,30.39,SSE,151,0.0,1.0,68,0.00,,,0.00,weatherlink.com 1.10,2013-03-07 23:41:00,
2013-03-07 18:56:00,38.0,29.0,30.39,East,98,0.0,1.0,71,0.00,,,0.00,weatherlink.com 1.10,2013-03-07 23:56:00,
2013-03-07 19:11:00,36.8,29.0,30.40,East,97,0.0,0.0,73,0.00,,,0.00,weatherlink.com 1.10,2013-03-08 00:11:00,
2013-03-07 19:26:00,35.8,29.0,30.40,ENE,57,0.0,0.0,76,0.00,,,0.00,weatherlink.com 1.10,2013-03-08 00:26:00,
2013-03-07 19:42:00,35.2,29.0,30.40,SSE,147,0.0,0.0,77,0.00,,,0.00,weatherlink.com 1.10,2013-03-08 00:42:00,
2013-03-07 19:57:00,34.4,29.0,30.41,NE,46,0.0,0.0,79,0.00,,,0.00,weatherlink.com 1.10,2013-03-08 00:57:00,
2013-03-07 20:12:00,33.7,28.0,30.41,NNE,32,0.0,0.0,80,0.00,,,0.00,weatherlink.com 1.10,2013-03-08 01:12:00,
2013-03-07 20:27:00,33.2,28.0,30.41,ESE,121,0.0,2.0,80,0.00,,,0.00,weatherlink.com 1.10,2013-03-08 01:27:00,
2013-03-07 20:42:00,32.3,28.0,30.41,East,91,0.0,0.0,83,0.00,,,0.00,weatherlink.com 1.10,2013-03-08 01:42:00,
2013-03-07 20:57:00,31.8,27.0,30.41,ESE,121,0.0,0.0,83,0.00,,,0.00,weatherlink.com 1.10,2013-03-08 01:57:00,
2013-03-07 21:12:00,31.4,27.0,30.41,East,101,0.0,1.0,84,0.00,,,0.00,weatherlink.com 1.10,2013-03-08 02:12:00,
2013-03-07 21:27:00,30.8,27.0,30.42,SE,131,0.0,3.0,85,0.00,,,0.00,weatherlink.com 1.10,2013-03-08 02:27:00,
2013-03-07 21:42:00,30.5,27.0,30.42,ENE,64,0.0,1.0,86,0.00,,,0.00,weatherlink.com 1.10,2013-03-08 02:42:00,
2013-03-07 21:57:00,30.4,26.0,30.42,ESE,115,0.0,3.0,85,0.00,,,0.00,weatherlink.com 1.10,2013-03-08 02:57:00,
2013-03-07 22:12:00,30.1,26.0,30.42,SE,139,0.0,1.0,86,0.00,,,0.00,weatherlink.com 1.10,2013-03-08 03:12:00,
2013-03-07 22:27:00,29.7,26.0,30.42,ESE,110,0.0,1.0,86,0.00,,,0.00,weatherlink.com 1.10,2013-03-08 03:27:00,
2013-03-07 22:42:00,29.6,26.0,30.42,East,84,0.0,1.0,86,0.00,,,0.00,weatherlink.com 1.10,2013-03-08 03:42:00,
2013-03-07 22:57:00,29.3,26.0,30.42,ENE,72,0.0,1.0,86,0.00,,,0.00,weatherlink.com 1.10,2013-03-08 03:57:00,
2013-03-07 23:12:00,28.9,26.0,30.41,NNE,31,0.0,0.0,87,0.00,,,0.00,weatherlink.com 1.10,2013-03-08 04:12:00,
2013-03-07 23:27:00,28.5,25.0,30.41,NNE,26,0.0,0.0,88,0.00,,,0.00,weatherlink.com 1.10,2013-03-08 04:27:00,
2013-03-07 23:42:00,28.1,25.0,30.41,ENE,77,0.0,0.0,88,0.00,,,0.00,weatherlink.com 1.10,2013-03-08 04:42:00,
2013-03-07 23:57:00,27.7,25.0,30.41,ENE,75,0.0,0.0,89,0.00,,,0.00,weatherlink.com 1.10,2013-03-08 04:57:00,